TimeCDT,TemperatureF,Dew PointF,Humidity,Sea Level PressureIn,VisibilityMPH,Wind Direction,Wind SpeedMPH,Gust SpeedMPH,PrecipitationIn,Events,Conditions,WindDirDegrees,DateUTC
12:53 AM,70.0,66.0,87,29.82,7.0,South,9.2,-,0.00,,Overcast,190,2013-03-18 05:53:00
1:53 AM,69.1,66.0,90,29.82,7.0,South,11.5,-,N/A,,Overcast,190,2013-03-18 06:53:00
2:53 AM,69.1,66.0,90,29.82,7.0,South,8.1,-,N/A,,Overcast,190,2013-03-18 07:53:00
3:53 AM,69.1,66.9,93,29.80,6.0,South,10.4,-,N/A,,Overcast,180,2013-03-18 08:53:00
4:53 AM,69.1,66.0,90,29.80,5.0,South,10.4,-,N/A,,Overcast,190,2013-03-18 09:53:00
5:53 AM,69.8,66.2,88,29.81,6.0,South,9.2,-,N/A,,Overcast,190,2013-03-18 10:53:00
6:53 AM,69.1,66.0,90,29.84,7.0,SW,11.5,-,N/A,,Overcast,220,2013-03-18 11:53:00
7:47 AM,69.8,66.2,88,29.85,6.0,SSW,6.9,-,N/A,,Overcast,200,2013-03-18 12:47:00
7:53 AM,69.1,66.0,90,29.86,6.0,SSW,5.8,-,N/A,,Overcast,200,2013-03-18 12:53:00
8:53 AM,70.0,66.0,87,29.87,8.0,SSW,10.4,-,N/A,,Overcast,210,2013-03-18 13:53:00
9:53 AM,73.0,66.9,81,29.86,9.0,SSW,9.2,-,N/A,,Mostly Cloudy,200,2013-03-18 14:53:00
10:53 AM,75.9,64.9,69,29.85,10.0,SSW,15.0,21.9,N/A,,Partly Cloudy,200,2013-03-18 15:53:00
11:53 AM,78.1,63.0,60,29.85,10.0,SW,16.1,23.0,N/A,,Mostly Cloudy,220,2013-03-18 16:53:00
12:53 PM,80.1,64.9,60,29.84,10.0,SSW,11.5,-,N/A,,Mostly Cloudy,210,2013-03-18 17:53:00
1:53 PM,80.1,64.0,58,29.81,10.0,SW,12.7,-,N/A,,Scattered Clouds,230,2013-03-18 18:53:00
2:53 PM,82.0,64.0,54,29.79,10.0,SSW,12.7,-,N/A,,Clear,210,2013-03-18 19:53:00
3:53 PM,81.0,64.0,56,29.77,10.0,SW,12.7,-,N/A,,Partly Cloudy,220,2013-03-18 20:53:00
4:53 PM,80.1,64.0,58,29.77,10.0,SW,8.1,-,N/A,,Clear,220,2013-03-18 21:53:00
5:53 PM,78.1,64.0,62,29.77,10.0,WSW,9.2,-,N/A,,Clear,240,2013-03-18 22:53:00
6:53 PM,75.0,64.0,69,29.78,10.0,SSW,8.1,-,N/A,,Clear,210,2013-03-18 23:53:00
7:53 PM,72.0,63.0,73,29.79,10.0,SSW,5.8,-,N/A,,Clear,200,2013-03-19 00:53:00
8:53 PM,69.1,64.9,87,29.82,9.0,SSW,5.8,-,N/A,,Clear,200,2013-03-19 01:53:00
9:53 PM,70.0,64.9,84,29.85,9.0,SW,6.9,-,N/A,,Clear,230,2013-03-19 02:53:00
10:53 PM,70.0,66.0,87,29.91,8.0,NNW,10.4,-,N/A,,Mostly Cloudy,340,2013-03-19 03:53:00
11:06 PM,71.6,66.2,83,29.91,8.0,North,8.1,-,N/A,,Overcast,350,2013-03-19 04:06:00
11:53 PM,69.1,60.1,73,29.92,10.0,NNE,15.0,23.0,N/A,,Overcast,20,2013-03-19 04:53:00